Location: Alafon
(8.4500°N, 4.2333°E)
Time: 17:16:13
(UTC+00:00)

A-11 Canister half - Pass Details

Date: 13 August 2021
Orbit: 1515 x 1685 km, 47.2° (Epoch: 19 September)

Event Time Altitude Azimuth Distance (km) Brightness Sun altitude
Rises 20:40:34 0° 328° (NNW) 4,899 12.3 -38.2°
Reaches altitude 10° 20:43:51 10° 333° (NNW) 3,925 11.6 -39.0°
Enters shadow 20:51:36 46° 15° (NNE) 2,136 9.6 -40.7°
Maximum altitude 20:53:37 52° 48° (NE) 2,017 - -41.1°
Drops below altitude 10° 21:03:21 10° 121° (ESE) 3,926 - -43.3°
Sets 21:06:37 0° 126° (SE) 4,901 - -44.0°
